Location: Abraham Lincoln Continuation High School
(33.9711°N, 117.3662°W)
Time: 06:44:58
(UTC+00:00)

Okean-O - Pass Details

Date: 21 September 2020
Orbit: 639 x 641 km, 98.2° (Epoch: 26 October)

Event Time Altitude Azimuth Distance (km) Brightness Sun altitude
Rises 02:57:23 0° 187° (S) 2,929 6.0 -15.1°
Reaches altitude 10° 02:59:45 10° 197° (SSW) 2,024 5.3 -15.6°
Maximum altitude 03:03:45 34° 262° (W) 1,064 4.4 -16.4°
Drops below altitude 10° 03:07:47 10° 327° (NNW) 2,037 5.8 -17.2°
Sets 03:10:10 0° 337° (NNW) 2,950 6.6 -17.7°
